Terug naar catalogus

STARLINK-3505

ActiefCommunicatieVLEO
NORAD 51750·PAYLOAD·🇺🇸 United States

Gelanceerd Feb 21, 2022 vanaf Cape Canaveral Space Force Station

Loading…

Volgende Passages (komende 24 uur)

TLE

VersSource: CelesTrak SupGP

Epoch: Sep 15, 2026, 01:43 UTC

1 51750C 22016AN  26258.07201389  .00005376  00000+0  17284-3 0  2585
2 51750  53.1587 167.1487 0001046  81.8975 208.1518 15.31704886    11

Volg STARLINK-3505 in realtime met AllMySat

Download on the App Store